SL-16 DEB, 43353

Orbit data source: Space-Track

SL-16 DEB, 43353 is space debris in LEO originally from a launch on Tue, 31 Oct 1995 UTC launched from the Tyuratam Missile And Space Complex (TTMTR). Debris objects in space refer to the collection of defunct objects orbiting the Earth. Examples of debris include non-operational satellites, rocket bodies, and fragments generated from explosions, collisions, or faulty payload assembly.

Loading next visibility...
Identifier
43353, 1995-058N
Orbit
LEO
Country
Flag of CISCIS
Related business
Manufacturer
Unknown
Mission
Spacecraft
Bus & Motor
Unknown
Mass
Unknown
Launch date (UTC)
1995-10-31 (31 years ago)
Launch vehicle
Unknown
Launch site
Tyuratam Missile And Space Complex (TTMTR)
Object type
Payload
Rocket body
Debris
Shape & HBR
Unknown shape, 0.2 m
Radar Cross Section
Medium (>0.1 m² and <1 m²)

Expand to show TLE details & history
Last TLE update: 10 hours ago

TLE from 10 hours ago
0 SL-16 DEB
1 43353U 95058N   26266.89458599  .00012241  00000-0  17162-2 0  9993
2 43353  70.9825 221.6663 0016915 337.1741  22.8660 14.77516288670539
Epoch: 2026-09-23T21:28Z
TLE epoch observation values (Epoch: 2026-09-23T21:28:12.229Z)
Latitude
-0.00006°
Longitude
-103.12383°
Altitude
628.712 km
Speed
7.55 km/s
True Right ascension
14h 46m 39s
True Declination
0° 00' 00"
Sunlit
Object was in daylight at epoch
Visualization orbit readout
Latitude
Unknown
Longitude
Unknown
Altitude
Unknown
Speed
Unknown
Apparent Right ascension
Unknown
Apparent Declination
Unknown
Sunlit
N/A
Visualization observer readout
Local Sidereal Time
00:13:26
Azimuth
Unknown
Elevation
Unknown
Doppler factor
Unknown
Orbital elements
Apogee altitude
646.904 km
Perigee altitude
623.178 km
Semi-major axis
7,013.178 km
Eccentricity
0.00169
Inclination
70.9825°
RAAN
221.6663°
Arg. of periapsis
337.1741°
True anomaly
22.94147°
Mean anomaly
22.866°
Eccentric anomaly
22.90372°
Mean motion
3.69548 °/min
Orbital period
97.42 mins
BSTAR
0.0017162
Loading maneuver chart data...
Computing Atmospheric mass density...
Loading historical data...
Loading historical data...
Loading historical data...
Loading historical data...
Loading historical data...
Loading historical data...
Loading historical data...

Documentation

Showing up to 5 results
|